Location: Beneden-Haastrecht
(52.0012°N, 4.7557°E)
Time: 02:04:10
(UTC+00:00)

Cosmos 1656 - Pass Details

Date: 24 October 2020
Orbit: 796 x 851 km, 71.1° (Epoch: 27 November)

Event Time Altitude Azimuth Distance (km) Brightness Sun altitude
Rises 18:16:06 0° 185° (S) 3,334 6.8 -17.3°
Reaches altitude 10° 18:18:36 10° 178° (S) 2,415 6.0 -17.7°
Maximum altitude 18:23:46 42° 109° (ESE) 1,169 4.0 -18.5°
Enters shadow 18:26:18 27° 58° (ENE) 1,570 4.7 -18.9°
